TimeHST,TemperatureF,Dew PointF,Humidity,Sea Level PressureIn,VisibilityMPH,Wind Direction,Wind SpeedMPH,Gust SpeedMPH,PrecipitationIn,Events,Conditions,WindDirDegrees,DateUTC
12:57 AM,73.4,64.4,73,30.00,10.0,ESE,4.6,-,N/A,,Scattered Clouds,110,2012-11-01 10:57:00
1:57 AM,73.4,65.1,75,29.99,10.0,ESE,3.5,-,N/A,,Scattered Clouds,110,2012-11-01 11:57:00
2:57 AM,73.4,64.4,73,29.97,10.0,Calm,Calm,-,N/A,,Mostly Cloudy,0,2012-11-01 12:57:00
3:57 AM,73.4,66.2,78,29.97,10.0,Calm,Calm,-,N/A,,Clear,0,2012-11-01 13:57:00
4:57 AM,71.6,66.9,85,29.97,10.0,Calm,Calm,-,N/A,,Clear,0,2012-11-01 14:57:00
5:57 AM,73.4,66.0,78,29.98,10.0,Calm,Calm,-,N/A,,Partly Cloudy,0,2012-11-01 15:57:00
6:57 AM,73.4,66.7,80,30.00,10.0,Calm,Calm,-,N/A,,Partly Cloudy,0,2012-11-01 16:57:00
7:57 AM,73.4,67.8,83,30.01,10.0,Calm,Calm,-,N/A,,Partly Cloudy,0,2012-11-01 17:57:00
8:57 AM,73.4,68.0,83,30.02,10.0,Calm,Calm,-,N/A,,Partly Cloudy,0,2012-11-01 18:57:00
9:57 AM,75.2,66.0,73,30.02,10.0,NNE,5.8,-,N/A,,Partly Cloudy,30,2012-11-01 19:57:00
10:57 AM,77.0,64.9,66,30.02,10.0,NNE,6.9,-,N/A,,Scattered Clouds,30,2012-11-01 20:57:00
11:57 AM,78.8,66.0,65,30.00,10.0,NE,5.8,-,N/A,,Scattered Clouds,40,2012-11-01 21:57:00
12:57 PM,82.4,66.0,57,29.98,10.0,NE,8.1,-,N/A,,Scattered Clouds,50,2012-11-01 22:57:00
1:57 PM,78.8,66.0,65,29.95,10.0,East,8.1,-,N/A,,Scattered Clouds,80,2012-11-01 23:57:00
2:57 PM,78.8,66.0,65,29.94,10.0,East,5.8,-,N/A,,Scattered Clouds,80,2012-11-02 00:57:00
3:04 PM,-9999,-9999,N/A,29.95,6.2,East,6.9,-,N/A,,Overcast,90,2012-11-02 01:04:00
3:16 PM,78.8,66.2,65,29.95,6.2,ENE,6.9,-,N/A,,Scattered Clouds,60,2012-11-02 01:16:00
3:57 PM,78.8,66.9,67,29.94,10.0,ENE,6.9,-,N/A,,Scattered Clouds,70,2012-11-02 01:57:00
4:57 PM,77.0,66.0,69,29.94,10.0,ENE,5.8,-,N/A,,Scattered Clouds,70,2012-11-02 02:57:00
5:57 PM,77.0,68.5,75,29.95,10.0,East,3.5,-,N/A,,Scattered Clouds,90,2012-11-02 03:57:00
6:57 PM,77.0,64.0,64,29.97,10.0,East,3.5,-,N/A,,Scattered Clouds,90,2012-11-02 04:57:00
7:57 PM,75.2,64.0,68,29.99,10.0,East,4.6,-,N/A,,Scattered Clouds,90,2012-11-02 05:57:00
8:57 PM,75.2,64.0,68,29.99,10.0,Calm,Calm,-,N/A,,Scattered Clouds,0,2012-11-02 06:57:00
9:57 PM,75.2,64.0,68,29.99,10.0,East,3.5,-,N/A,,Scattered Clouds,100,2012-11-02 07:57:00
10:57 PM,75.2,64.0,68,29.99,10.0,ESE,4.6,-,N/A,,Scattered Clouds,120,2012-11-02 08:57:00
11:57 PM,75.2,64.0,68,29.99,10.0,SSW,3.5,-,N/A,,Mostly Cloudy,210,2012-11-02 09:57:00